When you browse on this site, cookies collect data to enhance your experience and personalize the content and advertising you see.
Visit our Privacy Policy to learn more. By continuing to use the site, you agree to this use of cookies and data.
  • In Czech Republic
  • List of Countries
  • For 7 days
  • Water Temperature
  • Satellite Maps
  • Weather Map
  • Weather Widgets
  • user-avatar
    Login

    Hourly Weather Calgari

    Today, 16 December, Sunday

    Time Temperature Precipitation Wind Pressure Humidity
    00:00 +7°C° 0 mm 4 mps 764 mmHg 80%
    01:00 +7°C° 0 mm 4 mps 764 mmHg 79%
    02:00 +7°C° 0 mm 4 mps 763 mmHg 77%
    03:00 +8°C° 0 mm 4 mps 763 mmHg 76%
    04:00 +9°C° 0 mm 3 mps 763 mmHg 75%
    05:00 +9°C° 0 mm 3 mps 763 mmHg 78%
    06:00 +9°C° 0 mm 3 mps 763 mmHg 81%
    07:00 +9°C° 0 mm 3 mps 763 mmHg 84%
    08:00 +12°C° 0 mm 2 mps 763 mmHg 81%
    09:00 +13°C° 0 mm 2 mps 763 mmHg 79%
    10:00 +14°C° 0 mm 2 mps 764 mmHg 77%
    11:00 +16°C° 0 mm 3 mps 763 mmHg 75%
    12:00 +17°C° 0 mm 4 mps 763 mmHg 73%
    13:00 +18°C° 0 mm 4 mps 763 mmHg 71%
    14:00 +17°C° 0 mm 5 mps 763 mmHg 76%
    15:00 +16°C° 0 mm 5 mps 762 mmHg 81%
    16:00 +16°C° 0 mm 6 mps 762 mmHg 86%
    17:00 +15°C° 0 mm 6 mps 762 mmHg 88%
    18:00 +15°C° 0 mm 6 mps 762 mmHg 89%
    19:00 +15°C° 0 mm 7 mps 762 mmHg 90%
    20:00 +15°C° 0 mm 7 mps 761 mmHg 90%
    21:00 +15°C° 0 mm 8 mps 761 mmHg 89%
    22:00 +15°C° 0 mm 8 mps 761 mmHg 89%
    23:00 +15°C° 0 mm 8 mps 761 mmHg 88%

    Tomorrow, 17 December, Monday

    Time Temperature Precipitation Wind Pressure Humidity
    00:00 +15°C° 0 mm 9 mps 761 mmHg 88%
    01:00 +13°C° 0 mm 9 mps 761 mmHg 87%
    02:00 +13°C° 0 mm 9 mps 761 mmHg 87%
    03:00 +13°C° 0 mm 9 mps 761 mmHg 86%
    04:00 +13°C° 0 mm 9 mps 761 mmHg 85%
    05:00 +12°C° 0 mm 9 mps 761 mmHg 83%
    06:00 +12°C° 0 mm 9 mps 761 mmHg 82%
    07:00 +12°C° 0 mm 10 mps 761 mmHg 80%
    08:00 +12°C° 0 mm 10 mps 762 mmHg 76%
    09:00 +12°C° 0 mm 11 mps 762 mmHg 72%
    10:00 +13°C° 0 mm 11 mps 763 mmHg 68%
    11:00 +13°C° 0 mm 11 mps 763 mmHg 65%
    12:00 +13°C° 0 mm 12 mps 763 mmHg 61%
    13:00 +13°C° 0 mm 12 mps 763 mmHg 58%
    14:00 +13°C° 0 mm 12 mps 763 mmHg 58%
    15:00 +13°C° 0 mm 12 mps 763 mmHg 59%
    16:00 +12°C° 0 mm 13 mps 764 mmHg 59%
    17:00 +12°C° 0 mm 12 mps 764 mmHg 62%
    18:00 +11°C° 0 mm 11 mps 765 mmHg 66%
    19:00 +9°C° 0 mm 10 mps 765 mmHg 69%
    20:00 +10°C° 0 mm 9 mps 766 mmHg 72%
    21:00 +10°C° 0 mm 8 mps 766 mmHg 75%
    22:00 +9°C° 0 mm 7 mps 767 mmHg 78%
    23:00 +9°C° 0 mm 7 mps 767 mmHg 80%

    Day after tomorrow, 18 December, Tuesday

    Time Temperature Precipitation Wind Pressure Humidity
    00:00 +8°C° 0 mm 6 mps 767 mmHg 82%
    01:00 +8°C° 0 mm 6 mps 767 mmHg 84%
    02:00 +8°C° 0 mm 5 mps 767 mmHg 84%
    03:00 +7°C° 0 mm 5 mps 768 mmHg 84%
    04:00 +7°C° 0 mm 5 mps 768 mmHg 84%
    05:00 +7°C° 0 mm 5 mps 768 mmHg 82%
    06:00 +7°C° 0 mm 5 mps 768 mmHg 80%
    07:00 +6°C° 0 mm 4 mps 768 mmHg 78%
    08:00 +8°C° 0 mm 4 mps 769 mmHg 70%
    09:00 +10°C° 0 mm 4 mps 769 mmHg 62%
    10:00 +12°C° 0 mm 4 mps 769 mmHg 54%
    11:00 +13°C° 0 mm 3 mps 769 mmHg 48%
    12:00 +14°C° 0 mm 3 mps 769 mmHg 42%
    13:00 +17°C° 0 mm 3 mps 769 mmHg 36%
    14:00 +16°C° 0 mm 2 mps 769 mmHg 40%
    15:00 +16°C° 0 mm 2 mps 769 mmHg 44%
    16:00 +15°C° 0 mm 2 mps 769 mmHg 47%
    17:00 +14°C° 0 mm 2 mps 769 mmHg 52%
    18:00 +12°C° 0 mm 2 mps 769 mmHg 56%
    19:00 +10°C° 0 mm 2 mps 769 mmHg 61%
    20:00 +9°C° 0 mm 2 mps 768 mmHg 64%
    21:00 +9°C° 0 mm 2 mps 768 mmHg 67%
    22:00 +9°C° 0 mm 2 mps 768 mmHg 69%
    23:00 +8°C° 0 mm 2 mps 768 mmHg 70%

    19 December, Wednesday

    Time Temperature Precipitation Wind Pressure Humidity
    00:00 +8°C° 0 mm 2 mps 768 mmHg 71%
    01:00 +8°C° 0 mm 2 mps 767 mmHg 72%
    02:00 +8°C° 0 mm 2 mps 767 mmHg 71%
    03:00 +8°C° 0 mm 2 mps 767 mmHg 71%
    04:00 +8°C° 0 mm 2 mps 767 mmHg 71%
    05:00 +7°C° 0 mm 2 mps 766 mmHg 71%
    06:00 +7°C° 0 mm 3 mps 766 mmHg 71%
    07:00 +7°C° 0 mm 3 mps 766 mmHg 72%
    08:00 +9°C° 0 mm 3 mps 766 mmHg 68%
    09:00 +11°C° 0 mm 3 mps 766 mmHg 64%
    10:00 +13°C° 0 mm 3 mps 766 mmHg 60%
    11:00 +14°C° 0 mm 3 mps 766 mmHg 58%
    12:00 +16°C° 0 mm 3 mps 766 mmHg 56%
    13:00 +17°C° 0 mm 4 mps 765 mmHg 54%
    14:00 +16°C° 0 mm 3 mps 765 mmHg 59%
    15:00 +16°C° 0 mm 3 mps 764 mmHg 64%
    16:00 +14°C° 0 mm 3 mps 764 mmHg 69%
    17:00 +14°C° 0 mm 2 mps 764 mmHg 75%
    18:00 +13°C° 0 mm 2 mps 764 mmHg 80%
    19:00 +12°C° 0 mm 2 mps 764 mmHg 86%
    20:00 +12°C° 0 mm 2 mps 764 mmHg 86%
    21:00 +11°C° 0 mm 3 mps 764 mmHg 86%
    22:00 +11°C° 0 mm 3 mps 764 mmHg 86%
    23:00 +11°C° 0 mm 3 mps 764 mmHg 86%

    20 December, Thursday

    Time Temperature Precipitation Wind Pressure Humidity
    00:00 +11°C° 0 mm 4 mps 763 mmHg 86%
    01:00 +11°C° 0 mm 4 mps 763 mmHg 87%
    02:00 +12°C° 0.2 mm 5 mps 763 mmHg 88%
    03:00 +12°C° 0.2 mm 5 mps 763 mmHg 90%
    04:00 +13°C° 0.2 mm 5 mps 763 mmHg 91%
    05:00 +12°C° 0 mm 5 mps 763 mmHg 91%
    06:00 +10°C° 0 mm 6 mps 764 mmHg 90%
    07:00 +9°C° 0 mm 6 mps 764 mmHg 89%
    08:00 +10°C° 0 mm 7 mps 764 mmHg 83%
    09:00 +11°C° 0 mm 7 mps 765 mmHg 77%
    10:00 +12°C° 0 mm 8 mps 766 mmHg 72%
    11:00 +13°C° 0 mm 8 mps 766 mmHg 66%
    12:00 +13°C° 0 mm 8 mps 766 mmHg 61%
    13:00 +15°C° 0 mm 8 mps 766 mmHg 55%
    14:00 +13°C° 0 mm 8 mps 766 mmHg 56%
    15:00 +13°C° 0 mm 8 mps 766 mmHg 58%
    16:00 +12°C° 0 mm 8 mps 766 mmHg 59%
    17:00 +12°C° 0 mm 8 mps 766 mmHg 63%
    18:00 +11°C° 0 mm 8 mps 766 mmHg 67%
    19:00 +10°C° 0 mm 8 mps 767 mmHg 71%
    20:00 +10°C° 0 mm 8 mps 767 mmHg 71%
    21:00 +10°C° 0 mm 8 mps 767 mmHg 72%
    22:00 +10°C° 0 mm 8 mps 768 mmHg 72%
    23:00 +9°C° 0 mm 7 mps 768 mmHg 73%

    21 December, Friday

    Time Temperature Precipitation Wind Pressure Humidity
    00:00 +9°C° 0 mm 7 mps 768 mmHg 73%
    01:00 +9°C° 0 mm 7 mps 768 mmHg 74%
    02:00 +9°C° 0 mm 6 mps 768 mmHg 75%
    03:00 +9°C° 0 mm 6 mps 768 mmHg 77%
    04:00 +8°C° 0 mm 5 mps 768 mmHg 79%
    05:00 +8°C° 0 mm 5 mps 768 mmHg 80%
    06:00 +8°C° 0 mm 5 mps 768 mmHg 82%
    07:00 +7°C° 0 mm 5 mps 769 mmHg 83%
    08:00 +9°C° 0 mm 5 mps 769 mmHg 77%
    09:00 +10°C° 0 mm 5 mps 769 mmHg 71%
    10:00 +13°C° 0 mm 5 mps 770 mmHg 64%
    11:00 +14°C° 0 mm 5 mps 770 mmHg 62%
    12:00 +14°C° 0 mm 5 mps 769 mmHg 59%
    13:00 +15°C° 0 mm 6 mps 769 mmHg 56%
    14:00 +15°C° 0 mm 6 mps 769 mmHg 58%
    15:00 +14°C° 0 mm 5 mps 769 mmHg 61%
    16:00 +14°C° 0 mm 5 mps 769 mmHg 63%
    17:00 +13°C° 0 mm 5 mps 770 mmHg 70%
    18:00 +10°C° 0 mm 5 mps 770 mmHg 77%
    19:00 +10°C° 0 mm 4 mps 770 mmHg 84%
    20:00 +10°C° 0 mm 4 mps 770 mmHg 84%
    21:00 +10°C° 0 mm 4 mps 770 mmHg 85%
    22:00 +8°C° 0 mm 4 mps 770 mmHg 85%
    23:00 +9°C° 0 mm 5 mps 770 mmHg 86%
    Show more